星链-34803 (STARLINK-34803)

导读

STARLINK-34803是美国SpaceX公司星链(Starlink)低轨互联网卫星星座的一员,于2025年7月31日发射。作为星链项目组网卫星,它旨在为全球提供高速宽带互联网服务,搭载通信载荷与霍尔推进器,具备自主避撞能力,服役末期会主动离轨坠入大气层焚毁,单星设计寿命超5年,助力星链全球互联网覆盖目标推进。

基本信息
目录编号:
65059
目录名称:
STARLINK-34803
国际标识:
2025-165D
轨道中心:
EARTH
卫星名称:
星链-34803
卫星全名:
星链-34803 (STARLINK-34803)
卫星状态:
在轨 (已飞行409 天)
发射日期:
2025-07-31 UTC
国别 :
美国 (US)
星等 :
--
该卫星已列入 空间交会检测服务 Space Conjunction Data Service (SCDS) ,当前飞行风险评估等级: 无高风险
轨道信息
数据来源 国际轨道数据
星历时间: 2026-09-13T04:16:53+0800
9小时前
查看轨道信息
半长轴: 6908.612km
偏心率: 0.0001478
轨道倾角: 97.284°
近地点辐角 109.415°
升交点赤经 327.196°
平近点角 250.724°
近地点: 529.453km
远地点: 531.497km
周期: 95.246分钟
每日圈数: 15.118774
详细信息
固有亮度:
5
最大亮度:
2.5
卫星平台:
Starlink V1.0
覆盖范围:
全球
运营商:
太空探索技术公司
运营商所在国:
美国
制造商(研发单位):
太空探索技术公司
制造商所在国:
美国
使用方式:
暂无
卫星简介
Starlink 计划是 SpaceX 推出的全球卫星互联网项目,通过发射低轨道卫星,为全球尤其是偏远地区提供高速、低延迟的互联网服务。自 2019 年起,Starlink 已部署数千颗卫星,旨在缩小全球数字鸿沟,推动互联网普及。该项目还为军事、航空等行业提供通信支持,带来广泛经济效益。
2D轨道图
3D轨道图
轨道高度分析图
轨道倾角分析图
轨道综合分析图
查看轨道综合分析图
交会数据列表
事件ID 空间交会对象 最接近时刻(TCA) 交会距离 交会风险概率(CRP) 交会风险指数(CRI) 操作
CDM_260914-193104-133606-505922
2026-09-14T
19:31:38+0000
1.735 km
极远距离
4.276023E-6 低风险 0.48
与全量物体交会距离演化趋势
与全量物体交会风险概率演化趋势